Flag for Russia Weather past 2 weeks in Samara, Russia

Now
79 °F

Broken clouds.


Feels Like: 79 °F
Forecast: 69 / 89 °F
Wind: 10 mph from Southeast

Location: Samara

Current Time: May 29, 2015 at 10:38:44 AM

Latest Report: May 29, 2015 at 10:00 AM


Visibility: N/A

Pressure: 29.95 "Hg

Humidity: 39%

Dew point: 52 °F

Location of SamaraLocation

Historic Weather in Samara — Graph

°F

Samara temperature yesterday

Maximum temperature yesterday: 88 °F (at 2:00 PM)
Minimum temperature yesterday: 63 °F (at 3:30 AM)
Average temperature yesterday: 74 °F

Past Weeks' High & Low Weather Summary

 TemperatureHumidityPressure
High88 °F (May 28, 2:00 PM)88% (May 14, 10:00 PM)30.12 "Hg (May 14, 10:00 PM)
Low37 °F (May 18, 4:30 AM)15% (May 27, 1:30 PM)29.42 "Hg (May 17, 4:00 AM)
Average62 °F55%29.85 "Hg
* Reported May 14 9:00 AM — May 29 9:30 AM, Samara, Weather by CustomWeather, © 2015

Note: Actual official high and low records may vary slightly from our data, if they occured in-between our weather recording intervals... More about our weather records

Advertising

Samara weather history for previous 24 hours

 ConditionsComfort  
Time TempWeatherWind HumidityBarometerVisibility
9:30 AM
Fri, May 29
75 °FBroken clouds.13 mph47%29.95 "HgN/A
9:00 AM73 °FBroken clouds.13 mph50%29.95 "HgN/A
8:30 AM72 °FBroken clouds.13 mph53%29.95 "HgN/A
8:00 AM70 °FBroken clouds.13 mph57%29.95 "HgN/A
7:30 AM68 °FBroken clouds.10 mph60%29.95 "HgN/A
7:00 AM70 °FBroken clouds.13 mph57%29.95 "HgN/A
6:30 AM68 °FBroken clouds.10 mph60%29.95 "HgN/A
6:00 AM68 °FBroken clouds.10 mph56%29.95 "HgN/A
5:30 AM68 °FBroken clouds.10 mph56%29.95 "HgN/A
5:00 AM66 °FOvercast.10 mph60%29.95 "HgN/A
4:30 AM66 °FMostly cloudy.6 mph56%29.92 "HgN/A
4:00 AM66 °FMostly cloudy.8 mph60%29.92 "HgN/A
3:30 AM66 °FMostly cloudy.8 mph60%29.92 "HgN/A
3:00 AM66 °FMostly cloudy.6 mph56%29.92 "HgN/A
2:00 AM68 °FMostly cloudy.10 mph53%29.92 "HgN/A
1:30 AM70 °FMostly cloudy.10 mph50%29.92 "HgN/A
1:00 AM70 °FMostly cloudy.10 mph50%29.92 "HgN/A
12:30 AM70 °FOvercast.10 mph50%29.92 "HgN/A
12:00 AM72 °FOvercast.10 mph44%29.92 "HgN/A
11:30 PM
Thu, May 28
72 °FOvercast.10 mph41%29.92 "HgN/A
11:00 PM72 °FOvercast.8 mph41%29.92 "HgN/A
10:30 PM72 °FMostly cloudy.8 mph44%29.92 "HgN/A
10:00 PM73 °FMostly cloudy.10 mph38%29.92 "HgN/A
9:30 PM73 °FMore clouds than sun.10 mph41%29.92 "HgN/A
9:00 PM75 °FMore clouds than sun.13 mph36%29.92 "HgN/A
8:30 PM75 °FCloudy.17 mph36%29.89 "HgN/A
8:00 PM75 °FCloudy.8 mph36%29.92 "HgN/A
7:30 PM77 °FCloudy.8 mph34%29.89 "HgN/A
7:00 PM81 °FCloudy.6 mph28%29.89 "HgN/A
6:30 PM81 °FCloudy.3 mph30%29.89 "HgN/A
6:00 PM79 °FCloudy.10 mph34%29.89 "HgN/A
5:30 PM81 °FCloudy.6 mph37%29.89 "HgN/A
5:00 PM81 °FCloudy.8 mph32%29.89 "HgN/A
4:30 PM86 °FThunderstorms. Broken clouds.10 mph25%29.89 "HgN/A
4:00 PM88 °FBroken clouds.10 mph24%29.89 "HgN/A
3:30 PM88 °FBroken clouds.10 mph24%29.89 "HgN/A
3:00 PM82 °FSprinkles. Broken clouds.10 mph28%29.92 "HgN/A
2:30 PM88 °FThunderstorms. Partly sunny.13 mph25%29.92 "HgN/A
2:00 PM88 °FPartly sunny.10 mph25%29.92 "HgN/A
1:30 PM86 °FPartly sunny.8 mph25%29.92 "HgN/A
1:00 PM84 °FScattered clouds.10 mph29%29.95 "HgN/A
12:30 PM84 °FPassing clouds.10 mph31%29.95 "HgN/A
12:00 PM82 °FPassing clouds.10 mph37%29.95 "HgN/A
11:30 AM81 °FSunny.8 mph37%29.98 "Hg10 mi
11:00 AM79 °FPassing clouds.8 mph39%29.98 "HgN/A
10:30 AM77 °FSunny.8 mph42%29.98 "Hg10 mi
10:00 AM75 °FSunny.8 mph44%29.98 "Hg10 mi
Weather by CustomWeather, © 2015

See weather overviewHow to use our weather pages